TimeCST,TemperatureF,Dew PointF,Humidity,Sea Level PressureIn,VisibilityMPH,Wind Direction,Wind SpeedMPH,Gust SpeedMPH,PrecipitationIn,Events,Conditions,WindDirDegrees,DateUTC
12:15 AM,41.9,32.0,68,30.38,10.0,North,3.5,-,N/A,,Clear,350,2012-11-24 06:15:00
12:35 AM,40.6,31.8,71,30.39,10.0,North,4.6,-,N/A,,Clear,360,2012-11-24 06:35:00
12:55 AM,40.1,31.8,72,30.39,10.0,North,3.5,-,N/A,,Clear,350,2012-11-24 06:55:00
1:35 AM,38.7,31.5,75,30.39,10.0,Calm,Calm,-,N/A,,Clear,0,2012-11-24 07:35:00
2:15 AM,36.5,32.0,84,30.39,10.0,North,3.5,-,N/A,,Clear,10,2012-11-24 08:15:00
2:55 AM,35.6,32.0,87,30.39,10.0,North,3.5,-,N/A,,Clear,10,2012-11-24 08:55:00
3:15 AM,34.5,32.0,90,30.39,10.0,Calm,Calm,-,N/A,,Clear,0,2012-11-24 09:15:00
3:55 AM,32.7,32.2,98,30.40,10.0,Calm,Calm,-,N/A,,Clear,0,2012-11-24 09:55:00
4:15 AM,32.9,32.5,99,30.39,10.0,North,4.6,-,N/A,,Clear,10,2012-11-24 10:15:00
4:35 AM,34.0,30.6,87,30.39,10.0,NNE,4.6,-,N/A,,Clear,20,2012-11-24 10:35:00
4:55 AM,33.1,30.0,89,30.39,10.0,North,4.6,-,N/A,,Clear,10,2012-11-24 10:55:00
5:15 AM,32.2,31.3,96,30.39,10.0,North,3.5,-,N/A,,Clear,360,2012-11-24 11:15:00
5:35 AM,33.3,29.3,85,30.39,10.0,North,6.9,-,N/A,,Clear,10,2012-11-24 11:35:00
5:55 AM,33.8,28.8,82,30.40,10.0,North,6.9,-,N/A,,Clear,10,2012-11-24 11:55:00
6:15 AM,34.0,28.0,79,30.41,10.0,North,3.5,-,N/A,,Clear,10,2012-11-24 12:15:00
6:35 AM,32.4,28.9,87,30.41,10.0,Calm,Calm,-,N/A,,Clear,0,2012-11-24 12:35:00
6:55 AM,31.1,30.0,96,30.42,10.0,Calm,Calm,-,N/A,,Clear,0,2012-11-24 12:55:00
7:15 AM,31.5,30.7,97,30.42,10.0,Calm,Calm,-,N/A,,Clear,0,2012-11-24 13:15:00
7:35 AM,33.1,29.5,87,30.43,10.0,North,3.5,-,N/A,,Clear,360,2012-11-24 13:35:00
7:55 AM,35.8,29.3,77,30.43,10.0,North,4.6,-,N/A,,Clear,10,2012-11-24 13:55:00
8:15 AM,37.9,29.3,71,30.44,10.0,NNE,5.8,-,N/A,,Clear,20,2012-11-24 14:15:00
8:35 AM,39.7,27.1,61,30.44,10.0,NE,6.9,-,N/A,,Clear,40,2012-11-24 14:35:00
8:55 AM,41.0,25.2,53,30.44,10.0,NNE,8.1,16.1,N/A,,Clear,30,2012-11-24 14:55:00
9:15 AM,41.9,24.3,50,30.44,10.0,NNE,9.2,-,N/A,,Clear,30,2012-11-24 15:15:00
9:35 AM,43.2,21.4,42,30.44,10.0,NE,9.2,-,N/A,,Clear,50,2012-11-24 15:35:00
9:55 AM,44.1,20.5,39,30.44,10.0,ENE,8.1,-,N/A,,Clear,60,2012-11-24 15:55:00
10:15 AM,45.1,19.9,37,30.43,10.0,NE,9.2,-,N/A,,Clear,40,2012-11-24 16:15:00
10:35 AM,45.5,18.7,34,30.42,10.0,NE,6.9,-,N/A,,Clear,50,2012-11-24 16:35:00
10:55 AM,46.6,16.7,30,30.42,10.0,East,4.6,-,N/A,,Clear,80,2012-11-24 16:55:00
11:15 AM,47.8,18.9,32,30.40,10.0,NNE,5.8,-,N/A,,Clear,30,2012-11-24 17:15:00
11:35 AM,48.2,18.9,31,30.39,10.0,NNE,3.5,-,N/A,,Clear,20,2012-11-24 17:35:00
11:55 AM,48.2,18.0,30,30.37,10.0,Calm,Calm,-,N/A,,Clear,0,2012-11-24 17:55:00
12:15 PM,50.2,18.3,28,30.36,10.0,East,4.6,-,N/A,,Clear,100,2012-11-24 18:15:00
12:35 PM,50.4,17.6,27,30.34,10.0,Calm,Calm,-,N/A,,Clear,0,2012-11-24 18:35:00
12:55 PM,51.1,17.6,27,30.33,10.0,Calm,Calm,-,N/A,,Clear,0,2012-11-24 18:55:00
1:15 PM,51.6,17.6,26,30.32,10.0,Calm,Calm,-,N/A,,Clear,0,2012-11-24 19:15:00
1:55 PM,52.5,16.0,24,30.31,10.0,WNW,3.5,-,N/A,,Clear,300,2012-11-24 19:55:00
2:15 PM,52.5,16.7,24,30.30,10.0,West,3.5,-,N/A,,Clear,260,2012-11-24 20:15:00
2:35 PM,53.4,18.3,25,30.30,10.0,North,3.5,-,N/A,,Clear,360,2012-11-24 20:35:00
2:55 PM,53.2,17.8,25,30.29,10.0,West,4.6,-,N/A,,Clear,280,2012-11-24 20:55:00
3:15 PM,53.6,18.5,25,30.29,10.0,Calm,Calm,-,N/A,,Clear,0,2012-11-24 21:15:00
3:35 PM,53.8,20.1,27,30.29,10.0,North,3.5,-,N/A,,Clear,350,2012-11-24 21:35:00
3:55 PM,53.2,18.9,26,30.28,10.0,Calm,Calm,-,N/A,,Clear,0,2012-11-24 21:55:00
4:15 PM,52.7,20.8,29,30.28,10.0,Calm,Calm,-,N/A,,Clear,0,2012-11-24 22:15:00
4:55 PM,44.2,33.8,67,30.27,10.0,Calm,Calm,-,N/A,,Clear,0,2012-11-24 22:55:00
5:15 PM,41.9,32.5,69,30.27,10.0,Calm,Calm,-,N/A,,Clear,0,2012-11-24 23:15:00
5:35 PM,40.5,33.3,75,30.26,10.0,Calm,Calm,-,N/A,,Clear,0,2012-11-24 23:35:00
5:55 PM,38.3,32.9,81,30.26,10.0,Calm,Calm,-,N/A,,Clear,0,2012-11-24 23:55:00
6:15 PM,37.2,32.9,84,30.26,10.0,Calm,Calm,-,N/A,,Clear,0,2012-11-25 00:15:00
6:35 PM,36.0,32.9,89,30.26,10.0,Calm,Calm,-,N/A,,Clear,0,2012-11-25 00:35:00
6:55 PM,35.1,32.4,90,30.26,10.0,Calm,Calm,-,N/A,,Clear,0,2012-11-25 00:55:00
7:15 PM,34.3,32.0,91,30.26,10.0,Calm,Calm,-,N/A,,Clear,0,2012-11-25 01:15:00
7:35 PM,33.6,32.0,94,30.26,10.0,Calm,Calm,-,N/A,,Clear,0,2012-11-25 01:35:00
7:55 PM,32.9,32.0,96,30.26,10.0,Calm,Calm,-,N/A,,Clear,0,2012-11-25 01:55:00
8:15 PM,32.2,31.8,99,30.25,10.0,Calm,Calm,-,N/A,,Clear,0,2012-11-25 02:15:00
8:35 PM,32.0,31.6,99,30.25,10.0,Calm,Calm,-,N/A,,Clear,0,2012-11-25 02:35:00
8:55 PM,32.0,31.6,99,30.25,10.0,South,3.5,-,N/A,,Clear,180,2012-11-25 02:55:00
9:15 PM,32.0,31.8,99,30.25,10.0,Calm,Calm,-,N/A,,Clear,0,2012-11-25 03:15:00
9:35 PM,31.5,30.4,96,30.24,10.0,South,3.5,-,N/A,,Clear,190,2012-11-25 03:35:00
9:55 PM,32.0,31.8,99,30.24,10.0,South,3.5,-,N/A,,Clear,190,2012-11-25 03:55:00
10:15 PM,31.8,30.2,94,30.24,10.0,Calm,Calm,-,N/A,,Clear,0,2012-11-25 04:15:00
10:35 PM,30.9,30.9,100,30.23,10.0,SSW,3.5,-,N/A,,Clear,200,2012-11-25 04:35:00
10:55 PM,30.6,29.8,97,30.23,10.0,South,4.6,-,N/A,,Clear,180,2012-11-25 04:55:00
11:15 PM,30.6,30.4,99,30.22,10.0,South,3.5,-,N/A,,Clear,180,2012-11-25 05:15:00
11:35 PM,30.7,29.3,94,30.21,10.0,South,4.6,-,N/A,,Clear,180,2012-11-25 05:35:00
11:55 PM,31.5,29.7,93,30.21,10.0,Calm,Calm,-,N/A,,Clear,0,2012-11-25 05:55:00